EDT,Max TemperatureF,Mean TemperatureF,Min TemperatureF,Max Dew PointF,MeanDew PointF,Min DewpointF,Max Humidity, Mean Humidity, Min Humidity, Max Sea Level PressureIn, Mean Sea Level PressureIn, Min Sea Level PressureIn, Max VisibilityMiles, Mean VisibilityMiles, Min VisibilityMiles, Max Wind SpeedMPH, Mean Wind SpeedMPH, Max Gust SpeedMPH,PrecipitationIn, CloudCover, Events, WindDirDegrees
2012-10-1,61,60,58,57,57,55,100,92,84,29.91,29.84,29.75,10,8,2,20,5,24,0.97,8,Rain,186
2012-10-2,74,67,59,66,61,57,97,77,57,29.97,29.82,29.73,10,7,1,20,7,25,1.87,7,Rain,172
2012-10-3,75,67,59,59,57,50,93,69,44,30.20,30.08,29.97,10,10,10,13,4,17,0.00,0,,159
2012-10-4,75,65,54,58,55,51,93,68,43,30.27,30.23,30.19,10,10,9,17,6,23,0.00,2,,346
2012-10-5,75,62,48,56,52,48,100,73,46,30.28,30.19,30.04,10,7,0,12,3,16,0.00,2,Fog,178
2012-10-6,73,62,50,59,52,48,100,79,57,30.06,30.01,29.94,10,5,0,20,8,24,0.00,3,Fog,331
2012-10-7,59,53,47,54,48,39,93,85,76,30.13,30.04,29.96,10,10,2,25,8,33,0.23,7,Rain-Thunderstorm,349
2012-10-8,50,48,45,45,42,37,93,82,71,30.20,30.15,30.10,10,8,2,8,2,10,T,8,,183
2012-10-9,58,52,46,46,44,42,93,75,57,30.17,30.12,30.06,10,10,10,12,4,14,0.00,6,,142
2012-10-10,65,54,43,48,46,41,100,78,56,30.14,30.09,30.06,10,8,1,20,10,25,0.00,4,,340
2012-10-11,67,54,41,48,44,39,93,71,48,30.28,30.23,30.17,10,10,10,12,4,16,0.00,0,,352
2012-10-12,70,57,44,52,47,43,100,78,55,30.33,30.25,30.20,10,10,9,17,4,22,0.00,2,,342
2012-10-13,63,55,47,48,45,42,93,72,51,30.45,30.37,30.31,10,10,10,13,4,18,0.00,2,,154
2012-10-14,66,57,47,58,52,45,86,80,73,30.34,30.19,30.02,10,10,10,17,5,22,T,6,,163
2012-10-15,71,62,52,61,53,37,97,67,37,30.03,29.91,29.80,10,8,1,23,7,29,0.83,6,Rain,332
2012-10-16,67,57,46,43,39,33,77,55,32,30.01,29.93,29.87,10,10,10,20,9,24,0.00,0,,349
2012-10-17,69,54,39,45,42,38,100,69,37,30.01,29.93,29.87,10,10,10,16,4,21,0.00,0,,169
2012-10-18,65,56,47,57,52,44,93,83,73,29.92,29.84,29.78,10,10,2,17,7,23,0.02,5,Rain,167
2012-10-19,66,52,38,50,38,30,100,64,28,29.82,29.77,29.68,10,7,0,20,5,26,0.00,1,Fog,199
2012-10-20,64,52,40,41,39,37,89,66,43,29.99,29.86,29.78,10,10,10,18,6,22,0.00,0,,351
2012-10-21,69,54,39,43,40,37,92,63,33,30.18,30.11,30.00,10,10,10,16,5,21,0.00,0,,340
2012-10-22,75,57,39,50,44,37,100,68,35,30.27,30.21,30.14,10,10,10,13,2,16,0.00,0,,157
2012-10-23,78,60,42,51,46,41,100,66,32,30.26,30.18,30.10,10,9,2,9,1,13,0.00,0,,173
2012-10-24,78,60,42,51,46,41,100,67,33,30.25,30.18,30.09,10,9,2,12,2,15,0.00,1,,228
2012-10-25,73,58,42,54,48,41,100,75,49,30.19,30.15,30.10,10,7,0,13,2,17,0.00,1,Fog,150
2012-10-26,75,64,53,57,53,51,93,70,46,30.15,30.06,29.96,10,10,10,9,2,13,0.00,5,,151
2012-10-27,68,60,51,54,50,45,96,80,63,29.96,29.86,29.79,10,10,7,24,12,32,0.00,4,,344
2012-10-28,54,47,40,45,41,33,85,76,66,29.83,29.79,29.76,10,10,10,36,18,44,0.09,6,Rain,347
2012-10-29,46,42,37,34,31,28,79,69,58,29.79,29.70,29.59,10,10,10,39,25,49,T,6,,334
2012-10-30,42,39,36,33,30,27,85,71,57,29.69,29.57,29.48,10,10,10,23,11,37,0.00,7,,333
2012-10-31,54,46,37,33,29,19,76,56,35,29.81,29.73,29.68,10,10,10,21,10,26,0.00,4,,350